Location: Laan Hart van Zuid
(52.2563°N, 6.7904°E)
Time: 05:06:29
(UTC+01:00)

ARIANE 6 FM1 Upper Stage - Pass Details

Date: 23 January 2026
Orbit: 522 x 608 km, 62.0° (Epoch: 18 February)

Event Time Altitude Azimuth Distance (km) Brightness Sun altitude
Rises 20:11:49 0° 233° (SW) 2,695 6.8 -28.4°
Reaches altitude 10° 20:14:03 10° 235° (SW) 1,794 5.8 -28.7°
Enters shadow 20:15:56 26° 239° (WSW) 1,064 4.5 -29.0°
